GW4214 Weather Reports


time (UTC)temp
C
wind
direction
speed
KPH
gust
KPH
rain 1hr
cm
rain 24hr
cm
rain mn
cm
humidity
%
barometer
mb
20260504090139 13 177 6.4 8.0 0.00 0.00 0.00 83 1013.2
20260504081609 15 188 3.2 8.0 0.00 0.00 0.00 77 1012.5
20260504081105 15 209 4.8 4.8 0.00 0.00 0.00 76 1012.1
20260504080602 15 192 6.4 8.0 0.00 0.00 0.00 77 1012.5
20260504050415 22 221 0.0 0.0 0.00 0.00 0.00 53 1010.4
20260504045912 22 222 1.6 1.6 0.00 0.00 0.00 53 1010.4
20260504045408 22 220 0.0 0.0 0.00 0.00 0.00 52 1010.0
20260504044904 22 218 1.6 1.6 0.00 0.00 0.00 51 1009.7
20260504044401 23 227 1.6 1.6 0.00 0.00 0.00 50 1010.0
20260504043859 23 218 0.0 0.0 0.00 0.00 0.00 48 1009.7
20260504043355 23 220 0.0 1.6 0.00 0.00 0.00 47 1009.7
20260504042853 23 227 1.6 1.6 0.00 0.00 0.00 47 1009.7
20260504042349 23 230 1.6 1.6 0.00 0.00 0.00 48 1009.7
20260504041845 23 218 0.0 0.0 0.00 0.00 0.00 50 1009.3
20260504041342 23 218 0.0 0.0 0.00 0.00 0.00 50 1009.7
20260504040838 24 224 0.0 0.0 0.00 0.00 0.00 50 1009.7
20260504040336 24 216 0.0 0.0 0.00 0.00 0.00 48 1009.3
20260504035831 25 216 0.0 0.0 0.00 0.00 0.00 46 1009.3
20260504035330 25 217 0.0 0.0 0.00 0.00 0.00 46 1009.3
20260504034826 25 215 0.0 0.0 0.00 0.00 0.00 47 1009.3
20260504034324 26 225 1.6 1.6 0.00 0.00 0.00 45 1009.3
20260504033821 26 215 0.0 0.0 0.00 0.00 0.00 44 1009.0
20260504033319 26 216 0.0 0.0 0.00 0.00 0.00 44 1009.0
20260504032815 27 225 1.6 1.6 0.00 0.00 0.00 43 1009.0
20260504032312 27 222 1.6 3.2 0.00 0.00 0.00 42 1009.3
20260504031809 27 254 4.8 4.8 0.00 0.00 0.00 41 1009.0
20260504031306 28 225 1.6 1.6 0.00 0.00 0.00 41 1009.0
20260504030802 28 224 4.8 4.8 0.00 0.00 0.00 40 1009.0
20260504030300 28 240 3.2 3.2 0.00 0.00 0.00 39 1009.0
20260504025756 29 214 1.6 1.6 0.00 0.00 0.00 38 1009.0
20260504025253 30 233 4.8 4.8 0.00 0.00 0.00 36 1009.0
20260504024749 30 233 0.0 0.0 0.00 0.00 0.00 36 1009.0
20260504024246 30 225 0.0 0.0 0.00 0.00 0.00 36 1009.0
20260504023743 30 238 0.0 0.0 0.00 0.00 0.00 35 1009.0
20260504023239 30 244 3.2 3.2 0.00 0.00 0.00 34 1009.0
20260504022735 30 237 0.0 0.0 0.00 0.00 0.00 34 1009.0
20260504022232 31 284 3.2 4.8 0.00 0.00 0.00 34 1009.0
20260504021729 31 239 0.0 1.6 0.00 0.00 0.00 34 1009.0
20260504021226 31 263 4.8 8.0 0.00 0.00 0.00 34 1009.0
20260504020723 30 245 3.2 3.2 0.00 0.00 0.00 34 1009.0
20260504020219 30 285 4.8 4.8 0.00 0.00 0.00 34 1008.7
20260504015716 31 285 0.0 1.6 0.00 0.00 0.00 34 1009.0
20260504015212 31 253 4.8 8.0 0.00 0.00 0.00 34 1009.0
20260504014708 31 234 4.8 4.8 0.00 0.00 0.00 34 1009.0
20260504014205 31 301 8.0 11.3 0.00 0.00 0.00 34 1009.0
20260504013703 31 221 1.6 1.6 0.00 0.00 0.00 33 1009.0
20260504013200 31 257 4.8 8.0 0.00 0.00 0.00 33 1009.0
20260504012656 31 251 4.8 8.0 0.00 0.00 0.00 33 1009.0
20260504012154 31 278 8.0 11.3 0.00 0.00 0.00 33 1009.0
20260504011651 31 233 4.8 8.0 0.00 0.00 0.00 33 1009.0
20260504011148 31 253 4.8 4.8 0.00 0.00 0.00 32 1009.0
20260504010643 31 263 0.0 0.0 0.00 0.00 0.00 33 1009.3
20260504010139 31 257 0.0 1.6 0.00 0.00 0.00 32 1009.0
20260504005637 31 244 0.0 0.0 0.00 0.00 0.00 33 1009.3
20260504005133 31 243 1.6 1.6 0.00 0.00 0.00 33 1009.0
20260504004631 31 275 1.6 4.8 0.00 0.00 0.00 32 1009.3
20260504004128 31 222 3.2 4.8 0.00 0.00 0.00 32 1009.3
20260504003624 31 125 3.2 8.0 0.00 0.00 0.00 33 1009.3
20260504003121 32 304 4.8 8.0 0.00 0.00 0.00 32 1009.3
20260504002618 32 205 1.6 4.8 0.00 0.00 0.00 32 1009.3
20260504002116 32 273 0.0 0.0 0.00 0.00 0.00 31 1009.3
20260504001613 32 340 4.8 8.0 0.00 0.00 0.00 32 1009.3
20260504001109 32 207 0.0 0.0 0.00 0.00 0.00 32 1009.7
20260504000606 32 293 4.8 11.3 0.00 0.00 0.00 32 1009.3
20260504000104 32 291 1.6 4.8 0.00 0.00 0.00 32 1009.7